Terminal Aerodrome Forecast
Issued by NWS Milwaukee/Sullivan, WI

Home | Current Version | Previous Version | Text Only | Print | Product List | Glossary On
Versions: 1 2 3 4 5 6 7 8 9 10 11 12 13 14 15 16 17 18 19 20 21 22 23 24 25 26 27 28 29 30 31 32 33 34
000
FTUS43 KMKX 171433 AAD
TAFMSN
TAF AMD
KMSN 171433Z 1715/1812 23008G14KT P6SM BKN020
     FM171800 28009KT P6SM SCT040 BKN250
     FM172300 30007KT P6SM FEW040 BKN200
     FM180200 33003KT P6SM SCT250=

USA.gov is the U.S. government's official web portal to all federal, state and local government web resources and services.